Weather Roundup
Issued by NWS Chicago, IL

Home | Current Version | Previous Version | Graphics & Text | Print | Product List | Glossary On
Versions: 1 2 3 4 5 6 7 8 9 10 11 12 13 14 15 16 17 18 19 20 21 22 23 24 25 26 27 28 29 30 31 32 33 34 35 36 37 38 39 40 41 42 43 44 45 46 47 48 49 50
000
NZUS59 KLOT 230912
HRRLOT

CHICAGO AREA WEATHER ROUNDUP
NATIONAL WEATHER SERVICE CHICAGO/ROMEOVILLE IL
300 AM CST THU FEB 23 2017

NOTE: "FAIR" INDICATES FEW OR NO CLOUDS BELOW 12,000 FEET WITH NO
SIGNIFICANT WEATHER AND/OR OBSTRUCTIONS TO VISIBILITY.

* THESE STATIONS ARE NOT UNDER NWS QUALITY CONTROL. THEY ALSO MAY NOT
  REPORT WEATHER SUCH AS PRECIPITATION OR FOG.

ILZ005-006-012>014-019>023-231000-
NORTHEAST ILLINOIS

CITY           SKY/WX    TMP DP  RH WIND       PRES   REMARKS
OHARE          CLEAR     52  47  83 W8        29.67R
MIDWAY         CLEAR     54  48  80 W9        29.67S
AURORA         CLEAR     49  44  83 SW7       29.70R
LANSING*       CLEAR     53  51  94 W8        29.69R
JOLIET*        CLEAR     53  50  90 W5        29.70R
WAUKEGAN       CLEAR     51  44  77 W7        29.65R
DUPAGE AIRPORT CLEAR     48  45  89 W6        29.68R
WHEELING       CLEAR     51  45  79 W5        29.68R
KANKAKEE*      FOG       45  44  98 CALM      29.70S VSB 1
MORRIS*        CLEAR     50  48  92 W6        29.69S
LEWIS AIRPORT* CLEAR     50  50  99 W9        29.70R
NORTHERLY ISL    N/A     55  48  77 W8          N/A
$$

WIZ051-052-058>065-066-070>072-231000-
SOUTHEAST WISCONSIN

CITY           SKY/WX    TMP DP  RH WIND       PRES   REMARKS
MILWAUKEE      CLEAR     53  43  68 W12       29.64R
KENOSHA*       CLEAR     50  43  77 W12       29.64R
RACINE*        CLEAR     51  42  71 W9        29.65R
WAUKESHA       CLEAR     45  41  87 W7        29.66R
WEST BEND      CLEAR     48  43  81 W13G21    29.63S
$$

INZ001>003-010>013-019-020-231000-
NORTHWEST INDIANA

CITY           SKY/WX    TMP DP  RH WIND       PRES   REMARKS
GARY*          PTCLDY    57  50  77 W9        29.68S
MICHIGAN CITY* NOT AVBL
RENSSELAER*    NOT AVBL
VALPARAISO     CLEAR     53  51  93 SW8       29.69R FOG
$$

LMZ740>746-231000-
SOUTHERN LAKE MICHIGAN

STATION/POSITION TIME  SKY/WX   TEMP WIND        PRES    VSBY
                                AIR  DIR/SP/G
                 (UTC)          (F)  (DEG/KT/KT) (MB)    (MI)
HARRISON CRIB    0840            57  260/ 16/ 17   N/A
BURNHAM HARBOR   0900            55  270/  9/ 10   N/A
CALUMET HARBOR   0848            55  240/  6/ 11 1004.6R
BURNS HARBOR     0840            50  250/ 12/ 14 1005.4R
MICHIGAN CITY    0840            51  210/ 19/ 19   N/A
$$

ABBREVIATIONS USED IN REMARKS
   TC - TEMPERATURE IN CELSIUS
  WCI - WIND CHILL INDEX
   HX - HEAT INDEX
  VSB - VISIBILITY
$$




USA.gov is the U.S. government's official web portal to all federal, state and local government web resources and services.